Regional Weather Roundup
Issued by NWS Little Rock, AR

Home | Current Version | Previous Version | Graphics & Text | Print | Product List | Glossary On
Versions: 1 2 3 4 5 6 7 8 9 10 11 12 13 14 15 16 17 18 19 20 21 22 23 24 25 26 27
000
ASUS44 KLZK 271505
RWRLZK

WEATHER ROUNDUP FOR ARKANSAS
NATIONAL WEATHER SERVICE LITTLE ROCK AR
1000 AM CDT FRI MAY 27 2016

NOTE: "FAIR" INDICATES FEW OR NO CLOUDS BELOW 12,000 FEET WITH NO
SIGNIFICANT WEATHER AND/OR OBSTRUCTIONS TO VISIBILITY.

ARZ001-003-010-029-271600-
NORTHWEST ARKANSAS

CITY           SKY/WX    TMP DP  RH WIND       PRES   REMARKS
FAYETTEVILLE   CLOUDY    69  68  96 S7        29.84R
FORT SMITH     CLOUDY    74  67  78 S6        29.79F
HARRISON       CLOUDY    72  66  81 S12       29.84F
BENTONVILLE    CLOUDY    73  64  73 S10       29.82F
ROGERS           N/A     73  66  78 S14G24    29.83S
SILOAM SPGS    CLOUDY    72  61  68 S14G20    29.82F
HIGHFILL       PTSUNNY   73  68  84 S18G24    29.81F
SPRINGDALE     CLOUDY    72  66  83 S14       29.85R
$$

ARZ004-005-016-271600-
NORTH CENTRAL ARKANSAS

CITY           SKY/WX    TMP DP  RH WIND       PRES   REMARKS
BATESVILLE     CLOUDY    73  70  88 SE7       29.88S
FLIPPIN        CLOUDY   N/A N/A N/A SE7       29.80F
$$

ARZ040-041-271600-
WEST CENTRAL ARKANSAS

CITY           SKY/WX    TMP DP  RH WIND       PRES   REMARKS
MENA           CLOUDY    73  70  88 CALM      29.85F
MOUNT IDA      PTSUNNY   73  66  78 CALM      29.84S
$$

ARZ009-017-025-026-028-271600-
NORTHEAST ARKANSAS

CITY           SKY/WX    TMP DP  RH WIND       PRES   REMARKS
CORNING          N/A     73  73 100 SE12      29.90S
JONESBORO      CLOUDY    74  71  91 S15       29.89F
NEWPORT        CLOUDY    76  74  93 S15       29.89S
WALNUT RIDGE   PTSUNNY   73  68  83 S14       29.89R
BLYTHEVILLE    CLOUDY    75  69  81 S14       29.93S
$$

ARZ022-023-033-042-044-271600-
CENTRAL ARKANSAS

CITY           SKY/WX    TMP DP  RH WIND       PRES   REMARKS
LITTLE ROCK    CLOUDY    77  71  82 MISG      29.87S
N LITTLE ROCK    N/A     75  71  88 S8G16     29.85S
JACKSONVILLE   CLOUDY    77  72  84 S8G17     29.86S
SEARCY         CLOUDY    77  73  87 S14       29.89S
CLINTON        CLOUDY    75  70  83 S5        29.86F
$$

ARZ036-271600-
EAST ARKANSAS

CITY           SKY/WX    TMP DP  RH WIND       PRES   REMARKS
WEST MEMPHIS   CLOUDY    76  70  82 S20       29.92S
$$

ARZ050-053-066-070-073-271600-
SOUTHWEST ARKANSAS

CITY           SKY/WX    TMP DP  RH WIND       PRES   REMARKS
ARKADELPHIA    FAIR      74  73  96 S8        29.87F
CAMDEN         LGT RAIN  72  66  83 S7        29.88R
TEXARKANA      CLOUDY    72  68  87 S3        29.85F
EL DORADO      LGT RAIN  70  69  97 S3        29.86F
DE QUEEN       CLOUDY    72  69  90 CALM      29.80F
$$

ARZ056-057-069-271600-
SOUTHEAST ARKANSAS

CITY           SKY/WX    TMP DP  RH WIND       PRES   REMARKS
PINE BLUFF     CLOUDY    73  71  93 SE10      29.89R
STUTTGART      CLOUDY    73  66  78 S13       29.90R
MONTICELLO     LGT RAIN  73  70  90 S8        29.91S

$$






USA.gov is the U.S. government's official web portal to all federal, state and local government web resources and services.